Preview of NWS' New Version of Forecast
This preview is not operational and should not be used for support decisions.

Regional Weather Roundup (RWR)

Issued by National Weather Service (NWS)

                            
000
ASUS45 KBOI 170810
RWRID 

IDAHO REGIONAL WEATHER ROUNDUP
NATIONAL WEATHER SERVICE BOISE ID
200 AM MDT TUE SEP 17 2019

NOTE: "FAIR" INDICATES FEW OR NO CLOUDS BELOW 12000 FEET
WITH NO SIGNIFICANT WEATHER AND/OR OBSTRUCTIONS TO VISIBILITY

IDZ012-014-170900-
SOUTHWEST IDAHO

  
CITY           SKY/WX    TMP DP  RH WIND       PRES   REMARKS
BOISE          CLOUDY    51  47  86 SW6       29.92R                  
CALDWELL       LGT RAIN  52  50  93 SE3       29.92S                  
MOUNTAIN HOME  CLOUDY    51  51 100 W6        29.92R                  
$$

IDZ016-017-170900-
SOUTHCENTRAL IDAHO

  
CITY           SKY/WX    TMP DP  RH WIND       PRES   REMARKS
BURLEY         CLOUDY    50  43  77 W8        29.91S                  
JEROME         CLOUDY    48  47  96 SW7       29.92S                  
TWIN FALLS     CLOUDY    47  46  97 NW3       29.93R                  
$$

IDZ019>023-170900-
SOUTHEAST IDAHO

  
CITY           SKY/WX    TMP DP  RH WIND       PRES   REMARKS
IDAHO FALLS    LGT RAIN  52  37  56 S16G31    29.90R                  
POCATELLO      CLOUDY    52  40  63 SW29      29.96R                  
REXBURG        CLOUDY    53  37  54 SW23G37   29.86R                  
$$

IDZ006-010-011-018-031-032-170900-
CENTRAL IDAHO MOUNTAINS

  
CITY           SKY/WX    TMP DP  RH WIND       PRES   REMARKS
MCCALL         LGT RAIN  44  41  89 SE7       29.92S                  
HAILEY         LGT RAIN  46  45  93 NW8       29.93F                  
STANLEY          N/A     41  36  82 E3        29.97R                  
SALMON         MOCLDY    58  37  45 S10       29.73R                  
CHALLIS        LGT RAIN  59  34  39 SW16G37   29.80R                  
$$

IDZ002-004-006-007-026-170900-
NORTHERN IDAHO

  
CITY           SKY/WX    TMP DP  RH WIND       PRES   REMARKS
LEWISTON       CLOUDY    55  48  77 CALM      29.88R                  
LOWELL           N/A     58  48  69 CALM      29.87S                  
COEUR D'ALENE  CLOUDY    52  48  86 CALM      29.88R                  
MULLAN PASS    FOG       40  39  97 VRB3      29.89S VSB 1/4          
$$